Theta_e
304 304 304 304 304 304 304 304 305 308 317 320 319 318 315 311 310 310 314 315 313 313 313 315 317 321 320 323 326 325 325 327 329 327 326 325 325 321 319 323 321 322 322 321 321
304 304 304 304 304 304 304 304 305 306 312 319 319 318 314 310 311 313 314 314 313 313 315 316 317 318 320 321 326 326 327 328 325 324 324 325 326 324 323 323 323 323 321 320 321
304 304 304 304 304 304 304 304 305 306 310 316 318 318 313 312 316 316 315 314 314 314 315 316 316 318 320 319 320 324 327 324 323 321 322 323 325 324 325 327 323 324 324 321 322
303 304 304 304 304 304 304 305 305 306 308 313 317 317 311 315 316 316 314 314 314 314 314 314 316 317 319 320 316 319 319 319 321 317 317 319 320 322 321 317 314 320 322 323 325
303 304 304 304 305 305 305 306 307 306 307 311 317 315 310 315 315 314 314 314 314 314 314 314 315 316 318 316 316 318 317 315 315 314 315 315 318 320 316 314 313 317 321 323 325
303 304 304 305 305 305 306 310 308 307 308 311 317 314 310 315 313 313 313 313 313 314 314 314 314 313 314 314 315 315 315 315 315 315 315 317 316 317 315 313 314 313 316 321 323
304 304 305 305 305 306 310 311 308 307 308 313 315 311 312 313 313 313 312 313 313 313 313 313 313 313 313 313 314 315 317 316 316 316 316 317 318 316 313 315 315 314 314 313 314
304 305 305 305 305 307 312 309 307 307 310 312 313 311 314 313 313 313 312 313 313 313 313 314 314 312 313 314 315 317 318 319 315 316 315 316 319 315 313 315 315 315 314 314 313
304 305 305 305 306 310 311 310 310 310 311 312 311 314 314 313 313 312 312 313 314 314 314 314 314 315 315 318 318 318 319 316 315 314 315 318 318 315 314 315 315 314 314 314 314
304 304 305 305 307 312 312 313 315 314 312 312 313 315 314 315 314 312 312 313 314 314 314 315 315 317 316 317 317 318 316 316 316 315 317 318 317 316 315 315 314 314 313 313 313
304 304 305 306 308 313 313 316 318 316 315 317 315 315 314 313 313 313 312 313 313 313 315 314 317 316 316 316 316 316 316 315 315 313 317 317 317 316 315 314 313 313 312 311 311
305 305 305 308 309 312 314 314 314 314 316 314 314 314 314 313 314 313 313 314 314 315 314 316 316 315 314 314 315 315 315 316 314 313 317 317 317 315 314 313 311 311 310 309 309
305 305 305 308 307 310 311 315 314 315 317 315 314 314 314 313 314 314 313 313 314 315 315 316 315 312 313 314 315 315 316 315 316 314 315 317 317 317 315 313 311 309 309 308 308
306 305 305 306 306 307 310 312 315 315 318 316 315 314 314 314 314 313 313 313 314 315 314 315 312 313 314 315 314 317 313 313 315 316 318 315 319 317 316 314 311 309 307 307 307
305 305 304 306 305 309 310 313 317 315 319 315 315 314 313 314 313 314 313 313 314 314 314 314 314 314 315 315 314 316 314 315 315 316 316 315 316 317 313 315 311 308 305 305 305
306 306 305 305 308 311 312 314 317 315 317 317 315 316 315 313 313 312 315 314 311 314 314 314 311 314 314 313 313 313 315 315 315 316 318 316 316 317 316 314 310 307 304 303 303
305 306 307 306 308 312 315 316 316 316 314 317 316 315 314 314 315 313 316 317 318 316 317 315 314 313 312 314 313 314 316 319 320 319 320 314 315 316 314 311 308 305 304 303 302
305 306 307 310 312 314 316 312 315 317 316 313 315 313 316 315 314 315 316 318 315 316 315 316 317 313 312 314 315 315 316 317 317 317 319 313 318 317 312 307 305 304 303 302 302
305 307 308 310 312 313 311 315 317 317 313 314 315 315 316 315 315 316 316 316 314 314 317 317 316 312 311 311 312 314 316 313 316 313 316 317 315 313 310 307 306 304 303 303 302
306 307 308 309 312 312 316 315 313 310 311 313 316 315 317 316 316 317 316 312 312 312 313 315 316 312 312 311 311 313 312 316 316 317 316 316 316 319 312 309 306 305 304 302 302
306 308 308 310 311 313 316 314 311 307 309 314 315 315 314 314 316 316 314 309 307 311 311 313 314 314 312 313 314 314 314 313 314 315 316 316 317 311 314 310 308 305 303 302 301
306 310 308 309 313 310 314 310 306 306 306 308 309 310 312 310 315 316 313 309 305 309 312 311 314 315 314 311 310 311 313 313 315 315 314 315 315 307 310 309 306 304 302 301 300
305 306 309 310 313 311 306 305 304 306 303 306 306 306 306 308 312 313 311 304 304 308 309 310 313 313 312 312 312 312 309 310 311 313 315 316 314 305 307 306 305 303 302 301 301
304 309 308 307 302 309 308 306 305 302 302 302 303 303 306 306 306 309 308 304 302 303 304 307 312 313 311 312 311 312 310 308 309 312 313 314 314 306 307 305 303 302 301 301 300
304 302 301 309 305 305 305 305 305 305 302 302 302 302 304 306 305 305 302 301 302 300 301 304 310 307 308 307 305 306 307 306 307 308 308 309 310 307 305 304 302 300 300 300 300
304 303 300 300 300 304 302 303 304 301 302 302 302 301 301 302 301 302 300 301 301 300 300 300 303 302 302 302 302 302 302 302 303 303 304 305 306 302 301 301 300 300 300 300 300
302 303 303 298 301 303 302 302 302 301 300 300 300 301 301 300 299 299 299 299 299 300 300 300 301 301 301 301 302 302 302 302 301 301 301 305 302 300 300 300 300 300 299 299 299
Wind_Speed
21 19 17 15 14 12 10 8 6 4 5 4 4 4 4 3 2 5 5 5 4 3 3 1 3 3 4 4 4 2 2 6 5 3 5 7 2 3 1 3 2 2 3 1 5
18 17 16 14 13 11 10 8 6 3 3 3 2 2 3 4 9 7 8 6 4 5 5 3 2 2 3 3 3 2 3 4 3 4 4 4 6 3 2 3 3 1 4 2 7
16 15 15 14 12 10 9 8 6 4 2 3 1 1 2 7 7 4 6 6 4 4 3 3 3 3 3 3 4 2 4 2 4 3 3 4 4 3 4 6 10 10 4 3 8
15 14 14 12 10 10 8 7 5 3 2 4 3 2 3 7 2 5 6 5 4 3 3 3 2 2 2 2 2 2 2 2 2 2 4 4 4 6 11 8 14 10 6 5 9
15 14 12 10 9 8 9 8 5 2 3 5 5 5 8 6 5 7 5 3 3 3 3 4 5 2 2 2 0 0 2 3 5 9 5 3 6 4 13 19 12 8 6 6 9
16 13 10 8 8 8 9 8 3 2 5 7 7 7 9 6 8 5 3 2 2 3 5 6 3 3 4 1 1 1 3 3 3 4 4 5 8 2 16 19 13 9 6 5 6
15 13 9 7 6 7 7 5 3 5 8 9 9 10 9 6 8 5 3 3 4 3 4 5 4 1 3 4 1 1 4 4 10 4 4 8 11 11 15 14 14 14 11 9 6
13 11 10 7 6 6 5 6 8 9 10 10 11 11 6 8 5 2 2 3 3 3 3 3 4 4 1 2 2 2 3 4 7 7 3 5 5 12 14 13 16 17 16 13 10
13 11 8 7 7 5 7 11 13 13 12 11 10 9 7 7 5 4 4 5 4 2 2 2 1 2 1 3 4 1 3 2 4 8 2 3 5 12 14 14 17 18 18 17 14
12 11 8 7 6 6 9 13 14 13 12 11 9 8 5 2 3 3 4 5 2 3 1 1 1 3 2 3 0 2 2 1 2 7 9 13 10 10 14 16 17 17 18 19 18
13 9 6 6 6 8 11 12 4 6 13 7 6 6 5 6 5 4 3 4 2 1 2 1 4 3 4 3 4 3 1 0 3 4 6 10 10 10 14 18 19 19 20 20 20
13 10 6 7 7 7 6 3 7 11 11 11 10 8 6 3 3 5 3 1 1 2 1 4 2 4 3 4 4 3 2 4 4 2 3 8 10 10 14 15 17 19 21 22 22
14 12 7 7 7 8 6 11 15 10 4 5 8 6 3 4 3 4 4 1 2 1 1 2 5 1 3 4 5 2 3 4 1 5 4 9 6 5 8 13 15 18 19 22 24
13 11 8 5 5 5 6 9 9 6 3 5 4 4 4 1 3 5 4 1 1 1 1 2 1 2 4 3 3 2 1 2 5 4 2 7 2 5 7 10 16 18 20 21 24
11 12 8 7 4 5 4 7 7 2 3 3 2 3 4 3 1 4 8 2 1 1 4 4 1 2 2 2 2 3 2 2 2 5 3 8 5 8 4 7 10 14 17 19 21
8 12 11 5 7 5 5 7 4 4 2 2 3 6 2 6 3 5 5 6 3 1 1 1 1 2 2 3 2 8 3 2 2 3 5 4 8 7 4 5 7 10 14 16 19
6 7 11 8 4 4 5 4 3 3 0 2 2 4 3 4 4 7 5 10 5 2 2 1 2 1 1 3 4 4 4 3 4 4 2 2 6 8 8 7 8 10 11 13 15
5 4 9 6 5 3 4 3 3 3 4 3 3 1 1 6 4 4 3 3 9 4 2 2 4 2 4 3 2 1 3 4 5 2 3 4 4 5 8 10 10 10 11 12 14
3 2 9 6 6 3 2 1 2 2 1 1 1 1 2 1 4 2 6 4 6 9 5 4 2 2 4 3 3 3 3 3 3 0 4 5 4 5 9 10 10 10 10 12 13
2 2 9 4 5 4 1 5 2 3 2 2 1 2 2 3 1 2 2 4 5 5 3 3 3 2 2 1 5 3 2 3 3 3 4 4 4 2 14 12 10 9 8 9 10
2 3 8 3 4 6 3 4 4 5 2 4 2 2 3 2 3 2 3 3 5 5 3 4 2 3 2 5 5 0 2 0 3 3 4 5 3 5 13 13 12 10 8 7 9
3 1 8 2 2 5 3 3 2 1 5 3 4 4 2 2 3 2 2 5 11 4 2 4 3 3 2 4 2 2 2 3 4 1 0 3 1 2 3 12 12 10 7 6 7
3 3 6 4 2 4 5 4 5 2 5 3 2 3 2 2 1 2 3 3 9 6 4 5 1 3 4 4 3 3 3 3 2 2 8 6 1 3 8 10 10 9 6 5 6
3 1 7 10 6 6 7 4 4 5 4 5 3 1 2 2 4 4 2 3 6 8 5 2 2 5 5 4 4 2 2 4 4 4 8 8 5 6 8 9 10 8 4 4 6
4 3 3 3 6 8 4 3 5 3 3 4 3 4 1 2 2 3 2 1 4 11 3 2 3 3 5 5 4 7 9 7 8 9 7 7 6 3 7 8 8 6 4 4 7
3 5 7 6 2 4 3 2 4 5 1 2 4 3 2 3 3 3 1 2 2 4 3 4 1 2 3 1 4 8 7 7 6 6 9 8 7 2 5 7 7 4 3 4 6
7 12 6 2 3 2 2 4 5 9 5 5 7 5 5 5 3 2 3 1 1 3 2 2 1 1 2 4 7 8 3 3 3 1 3 4 5 4 5 4 3 6 2 3 5
Wind_Direction
327 331 333 332 335 339 342 336 328 288 262 265 292 325 353 9 67 112 105 120 91 32 36 165 59 109 80 63 55 42 149 113 93 98 70 44 113 88 107 113 87 51 34 132 183
330 332 331 332 335 335 336 336 325 287 248 251 296 338 8 71 110 96 122 106 78 60 52 124 86 117 84 55 33 353 129 89 51 53 53 42 52 74 182 125 105 21 332 291 172
331 331 330 328 331 335 337 334 324 314 258 228 193 12 51 131 115 83 119 109 70 71 66 88 81 99 88 55 28 29 95 82 88 26 11 30 59 23 353 73 25 345 332 239 176
329 331 330 326 332 335 334 328 320 300 228 184 164 126 107 132 156 131 123 103 69 61 53 55 67 81 93 92 42 168 68 354 51 29 340 359 348 68 60 2 325 313 313 239 206
334 334 331 333 336 337 336 330 314 260 181 166 156 136 134 106 103 126 127 107 74 70 81 85 66 92 124 101 130 186 72 319 310 307 296 304 38 35 27 351 340 319 307 262 229
341 335 332 346 346 349 344 336 319 175 157 153 150 137 138 113 125 119 128 114 115 108 74 63 85 97 107 94 328 26 316 350 7 14 64 102 49 110 354 356 2 2 351 322 269
349 344 343 360 3 3 3 13 69 128 140 144 139 131 97 108 124 102 102 129 111 102 83 67 53 123 143 143 16 223 159 131 42 38 76 125 52 28 354 5 18 20 9 2 327
358 360 3 4 15 18 49 70 95 118 128 131 132 126 89 127 130 113 124 137 122 109 92 53 37 106 75 134 160 181 199 184 46 21 102 226 89 22 9 15 24 22 18 15 11
13 14 19 25 26 49 86 93 97 104 111 119 121 112 112 124 117 108 127 149 134 127 72 10 46 87 153 216 169 162 147 98 134 27 304 347 114 27 22 30 31 25 22 18 10
20 28 32 39 42 101 108 105 96 91 97 92 95 117 106 86 120 96 141 147 151 172 184 111 133 173 162 242 122 127 160 95 359 31 80 87 85 48 33 37 34 29 24 20 16
23 33 45 55 74 119 122 120 88 69 68 74 77 83 82 97 108 89 128 148 141 121 197 23 225 140 88 65 76 105 107 321 88 82 80 92 80 48 35 38 34 29 26 22 19
28 33 56 72 71 133 161 184 147 133 83 66 72 77 72 92 109 51 70 193 213 144 251 208 144 110 99 148 157 173 199 150 121 92 153 133 94 71 50 46 37 30 28 24 21
35 33 47 75 72 83 119 129 132 123 102 48 52 47 31 59 69 29 37 75 62 146 15 324 91 111 239 178 199 204 255 181 153 127 109 157 135 116 68 57 48 42 36 32 28
36 44 56 109 74 93 100 142 146 132 149 31 22 21 2 77 72 29 13 38 140 47 168 86 102 182 167 198 236 228 165 160 156 214 242 215 144 155 97 65 46 39 36 35 32
33 40 51 71 97 82 122 145 151 148 222 25 29 348 41 61 66 16 22 6 41 94 252 91 140 168 216 36 220 74 156 168 211 239 248 189 250 117 196 77 52 42 38 37 38
24 40 38 66 75 80 120 136 142 215 151 126 349 354 160 36 48 343 31 43 55 246 354 52 317 293 34 79 36 138 145 122 151 210 234 144 232 149 155 111 88 63 51 46 42
356 15 32 45 51 63 118 118 225 268 186 83 21 5 84 32 57 27 52 48 20 285 49 68 80 68 341 195 132 204 225 219 207 200 18 134 210 60 119 106 102 87 64 55 53
359 11 21 41 52 74 131 196 254 36 25 3 342 338 77 359 58 50 109 81 47 2 353 308 175 353 2 355 344 265 296 300 290 273 96 139 217 122 126 120 113 99 84 70 60
28 53 15 25 27 46 259 162 103 138 148 357 184 237 108 52 343 93 52 52 24 10 357 332 144 13 33 339 318 127 239 6 298 335 259 122 122 147 158 146 138 114 91 72 63
68 134 22 32 22 35 318 79 73 28 351 224 183 321 153 28 182 80 60 12 355 10 337 40 279 62 20 257 69 322 78 241 196 272 261 175 218 120 181 171 153 137 100 80 66
115 120 7 43 47 54 70 83 115 44 343 2 104 113 68 53 28 56 43 55 357 333 356 341 273 117 228 23 11 321 210 351 300 293 290 293 126 352 178 174 167 144 114 83 58
126 146 360 93 74 54 88 92 103 41 45 77 88 76 70 46 69 102 108 33 352 310 30 18 316 278 359 353 337 331 39 355 275 182 283 311 290 78 198 169 161 144 119 82 56
109 109 28 144 153 107 118 94 64 46 31 34 78 20 93 93 172 134 118 68 16 24 22 359 199 272 184 165 159 65 53 58 26 281 257 276 69 101 140 155 158 151 126 80 56
109 140 39 61 69 115 132 118 118 53 67 52 65 84 141 117 45 125 99 38 7 23 357 229 278 278 299 21 343 268 312 328 299 266 289 261 303 172 172 166 160 149 118 78 52
69 84 88 76 44 98 91 108 130 120 81 51 92 61 118 147 130 107 86 31 58 2 38 38 264 303 293 299 290 276 286 285 266 279 266 341 328 177 174 164 149 128 91 53 33
104 133 87 93 73 105 23 87 132 120 15 77 117 71 65 101 43 143 26 51 31 359 22 356 172 331 279 349 303 280 278 269 260 263 265 280 261 120 153 150 159 132 63 29 16
111 125 117 56 115 181 104 133 146 140 62 82 132 128 102 76 17 316 259 233 341 318 338 359 290 240 235 316 303 247 212 185 121 72 290 277 63 156 138 172 221 233 312 344 349